Location: Willow Grove Park
(46.1754°N, 123.0885°W)
Time: 23:02:30
(UTC-07:00)

Envisat - Visible Passes

Search period start: 19 March 2019 00:00
Search period end: 29 March 2019 00:00
Orbit: 764 x 766 km, 98.2° (Epoch: 19 March)

Date Brightness Start Highest point End Pass type
(mag) Time Alt. Az. Time Alt. Az. Time Alt. Az.
19 Mar 4.0 20:12:09 10° S 20:17:04 50° W 20:22:01 10° NNW visible
20 Mar 6.0 21:17:14 10° WSW 21:19:54 14° W 21:22:35 10° NW visible
21 Mar 5.1 20:38:20 10° SSW 20:42:45 30° W 20:47:13 10° NNW visible
22 Mar 3.6 20:00:48 10° S 20:05:49 63° W 20:10:53 10° NNW visible
23 Mar 5.8 21:05:09 10° SW 21:08:33 18° W 21:11:57 10° NW visible
24 Mar 4.7 20:26:47 10° SSW 20:31:28 37° W 20:36:10 10° NNW visible
26 Mar 5.6 20:53:18 10° SW 20:57:12 22° W 21:01:08 10° NW visible
27 Mar 4.2 20:15:19 10° S 20:20:11 46° W 20:25:05 10° NNW visible
28 Mar 6.0 21:20:47 10° WSW 21:23:03 13° W 21:25:21 10° WNW visible
